Location: Newark
(51.0500°N, 12.4500°E)
Time: 08:54:03
(UTC+00:00)

Vanguard 1 - Pass Details

Date: 23 February 2020
Orbit: 649 x 3833 km, 34.2° (Epoch: 07 April)

Event Time Altitude Azimuth Distance (km) Brightness Sun altitude
Rises 06:14:08 0° 217° (SW) 7,958 14.5 0.0°
Reaches altitude 10° 06:20:40 10° 208° (SSW) 6,906 14.3 1.0°
Maximum altitude 06:38:26 32° 157° (SSE) 4,598 14.1 3.6°
Drops below altitude 10° 06:51:19 10° 103° (ESE) 5,045 15.9 5.5°
Sets 06:55:06 0° 93° (E) 5,639 15.5 6.1°
